Wind_Speed
17 14 15 16 15 12 8 11 13 11 5 8 12 14 13 10 15 14 14 18 20 20 20 20 21 23 25 26 25 26 24 23 21 21 19 19 18 16 15 14 13 13 14 12
14 14 17 17 9 10 12 13 13 12 3 11 15 16 17 16 14 18 18 18 19 21 23 24 23 24 25 26 26 25 24 24 25 21 16 18 17 17 16 15 16 15 16 14
15 11 4 12 10 13 14 14 13 13 12 16 21 16 13 11 13 14 18 18 21 23 25 26 26 25 25 27 27 27 27 26 25 23 20 21 19 17 18 18 18 16 16 17
12 16 8 10 11 13 17 11 7 10 12 12 16 13 14 2 5 11 15 19 21 23 24 26 27 26 26 26 27 27 28 27 25 28 23 26 20 20 18 18 17 16 18 17
12 8 11 13 15 13 12 10 8 11 13 15 17 10 8 6 8 9 12 17 21 24 26 28 28 27 25 25 25 27 27 29 27 26 25 22 21 19 15 17 19 19 18 18
16 13 8 11 7 13 13 10 13 17 14 13 17 7 9 10 5 5 4 10 17 23 26 27 26 26 25 24 24 25 28 30 29 26 28 26 25 21 21 19 19 20 18 16
17 18 17 12 14 8 12 13 11 11 10 11 10 5 8 3 6 6 5 9 14 22 25 27 27 28 27 27 26 25 27 28 28 27 25 26 24 22 23 23 22 17 21 23
11 9 8 15 13 13 14 15 12 8 9 6 8 4 1 1 1 9 5 9 15 22 24 27 27 27 27 28 27 26 27 28 27 27 27 25 25 21 21 21 15 15 18 19
6 4 8 3 8 13 15 10 14 18 16 13 11 4 10 8 9 6 1 6 16 20 24 25 26 27 28 29 29 29 28 27 27 27 26 26 25 24 20 21 19 16 16 20
7 9 8 10 5 9 14 14 8 10 11 11 11 4 6 6 6 6 2 10 15 20 23 24 26 27 27 28 28 28 28 27 26 26 25 24 24 23 22 20 24 23 17 15
12 12 8 6 11 10 8 11 12 15 11 11 8 7 8 4 2 5 6 4 16 21 22 24 26 27 27 26 27 29 28 27 27 26 26 24 23 22 22 20 22 24 23 19
6 12 12 15 12 5 12 15 13 11 15 13 10 13 8 5 3 1 1 4 4 18 21 23 25 26 27 27 28 29 29 29 28 28 29 25 23 22 22 23 20 20 28 25
9 8 11 16 17 14 3 13 13 16 17 15 13 12 4 7 5 9 4 6 4 9 18 22 24 26 27 28 28 28 28 29 27 28 27 26 25 24 23 23 24 22 20 25
6 14 18 15 20 7 12 16 14 15 12 14 16 19 17 11 7 8 6 10 3 4 9 15 21 23 24 24 26 26 26 26 27 27 27 29 28 26 24 23 23 25 25 25
7 16 17 21 23 23 21 19 19 20 19 19 22 23 17 10 15 15 10 10 2 4 5 6 11 16 19 22 22 22 22 24 25 28 27 28 28 26 26 26 26 23 23 22
12 16 18 20 22 23 22 24 24 23 21 21 23 24 20 26 6 11 7 8 6 4 5 4 1 7 12 16 19 19 21 21 24 26 25 25 27 27 28 27 28 24 23 22
15 15 15 21 20 22 21 20 21 22 21 19 21 16 12 7 3 6 4 7 9 9 8 7 6 3 1 8 13 16 18 19 21 24 25 24 26 26 26 25 26 25 24 23
16 15 13 15 17 22 20 21 17 16 14 13 11 16 17 16 7 12 11 8 9 12 13 14 14 11 7 2 6 10 12 15 16 19 20 22 24 25 25 25 26 24 23 23
11 8 12 13 15 21 24 11 12 8 11 19 15 17 17 21 15 8 8 9 10 13 14 15 16 17 14 8 4 6 8 11 13 15 17 19 20 23 25 25 24 22 20 20
7 6 9 12 15 19 12 16 13 13 7 13 17 19 21 21 10 5 13 13 7 8 8 9 11 12 16 12 8 5 5 7 10 12 14 16 18 20 23 23 22 20 22 22
9 7 13 12 16 7 13 21 25 14 5 10 10 10 13 11 14 22 14 5 9 10 9 10 8 7 7 8 7 4 5 7 10 14 15 17 18 18 19 19 19 20 19 20
8 10 12 8 8 5 19 10 8 11 12 12 9 12 13 13 14 16 19 17 13 11 11 9 8 8 5 3 2 1 2 0 2 5 10 12 12 11 13 14 16 21 25 22
4 7 9 8 13 27 22 13 16 19 20 16 13 15 18 20 20 16 16 20 20 17 13 10 6 5 4 5 2 3 4 5 5 10 9 11 11 11 13 15 15 11 31 29
5 8 7 14 14 22 24 16 18 21 20 21 23 22 25 27 26 23 20 19 18 17 16 11 11 9 7 1 4 2 3 2 10 11 13 13 13 15 19 18 15 21 35 30
8 11 14 15 18 29 20 32 30 31 30 31 32 32 32 31 31 29 28 23 21 19 18 15 13 12 17 21 19 7 5 5 10 12 12 11 9 11 16 18 18 20 19 21
6 8 8 11 25 21 27 37 36 34 33 32 32 32 33 31 32 32 33 31 28 25 22 20 17 15 13 16 18 19 23 17 13 12 12 13 12 11 13 10 13 13 12 17
Wind_Direction
210 235 237 239 248 265 341 294 281 278 296 301 292 291 289 267 186 217 213 192 188 199 189 189 189 192 190 191 194 197 199 200 199 217 205 208 208 207 212 201 208 207 194 202
234 231 251 254 283 299 262 275 270 267 301 280 294 290 283 261 236 207 206 206 197 194 184 190 189 192 197 193 199 199 201 201 202 207 204 214 206 213 216 212 212 209 203 201
251 286 11 265 244 244 254 264 284 299 314 281 262 273 294 203 203 222 214 208 195 195 189 188 192 193 195 199 201 203 203 205 208 200 207 209 216 212 210 216 210 218 208 209
250 260 222 259 248 254 260 262 294 289 268 285 321 296 270 205 213 198 223 204 201 198 198 186 194 195 197 199 201 202 204 203 209 204 216 211 206 211 212 216 210 217 212 210
248 217 248 239 256 259 268 308 267 267 271 277 270 256 260 159 166 170 198 213 201 197 195 188 194 196 197 197 199 201 204 205 206 212 204 217 204 218 221 212 218 212 228 216
258 274 251 261 265 249 254 266 251 251 252 263 253 253 261 149 120 181 169 182 204 198 196 194 191 193 195 196 198 199 204 207 206 210 209 211 217 209 219 212 215 219 216 225
230 231 231 230 252 223 227 235 254 225 221 243 88 276 264 124 179 243 263 213 198 190 191 189 189 189 194 195 196 199 201 203 204 208 212 212 218 219 221 228 221 222 225 222
284 201 191 186 234 251 206 250 268 298 275 7 119 256 235 213 218 267 269 224 183 185 186 187 191 192 195 196 198 199 202 203 203 205 210 214 217 220 228 231 217 217 222 228
333 211 117 232 246 225 247 240 261 282 286 269 260 178 259 210 222 30 47 176 174 181 180 185 188 193 195 197 201 201 203 204 205 207 209 213 216 213 219 228 224 214 233 221
279 279 203 133 216 223 253 267 267 223 262 273 274 184 220 136 17 344 264 180 178 179 180 182 188 193 197 201 203 203 205 205 205 205 209 211 214 217 211 215 231 209 219 210
273 263 259 179 217 242 184 235 243 278 300 310 296 61 28 124 159 325 122 247 173 182 182 186 191 195 200 204 204 205 206 207 205 204 208 209 211 213 213 215 231 214 208 213
255 285 279 266 276 225 289 295 255 229 233 239 268 294 209 151 157 262 109 159 246 185 191 194 196 197 201 203 204 207 206 209 209 208 206 207 208 208 211 209 221 225 223 213
342 255 266 253 243 233 304 275 255 270 288 282 292 286 18 98 192 260 128 108 190 225 206 202 199 201 204 204 205 207 208 209 211 208 208 207 207 208 210 212 208 218 229 224
297 274 277 282 298 305 257 288 286 294 288 284 266 277 288 283 264 250 216 122 98 190 211 223 212 210 211 210 209 208 210 210 207 209 208 209 208 209 209 214 217 214 220 220
257 273 283 286 291 292 295 287 282 273 277 276 289 295 289 299 303 347 6 60 38 69 123 196 223 198 205 210 211 212 211 209 208 208 209 211 210 209 209 212 223 223 226 227
308 298 293 278 280 283 278 278 278 277 273 273 280 276 283 288 138 286 346 40 62 38 40 29 162 214 212 207 208 208 207 210 204 207 209 211 211 209 211 211 218 224 221 225
284 287 288 278 285 294 280 276 282 283 273 277 273 290 323 319 67 35 10 69 66 70 63 53 41 13 323 211 211 207 204 203 205 207 206 208 212 208 209 211 216 220 221 222
279 277 281 279 284 269 277 280 304 311 303 354 346 316 102 284 84 41 34 71 80 78 69 59 50 44 37 141 200 200 199 197 201 204 206 205 207 210 209 210 214 218 221 224
315 310 291 285 272 273 263 9 344 330 33 13 359 0 353 316 2 96 54 61 79 74 67 60 49 43 40 57 129 174 189 194 196 203 208 209 207 209 212 213 214 217 221 227
287 298 256 275 293 289 30 345 359 307 236 35 357 5 359 345 331 7 345 350 21 39 27 37 35 36 44 48 54 110 168 193 196 202 209 210 209 212 214 216 219 221 225 227
315 290 289 297 316 306 343 339 329 259 359 8 355 360 342 343 343 329 340 320 330 335 358 17 29 25 37 39 61 83 163 208 205 201 206 209 211 212 211 211 216 227 233 231
307 312 294 304 264 323 316 5 3 337 332 344 332 322 323 317 316 322 327 327 326 329 338 353 359 2 19 22 90 66 66 125 178 225 217 214 207 197 193 193 211 227 223 228
262 351 319 308 307 320 325 337 327 321 314 299 305 310 310 306 302 306 315 307 318 304 308 324 309 318 0 22 132 210 254 283 236 198 228 237 199 183 204 253 257 272 273 244
287 343 300 308 300 344 327 319 325 331 313 306 303 296 299 296 293 292 288 286 289 305 310 292 288 278 270 280 307 193 194 214 275 265 275 268 256 250 251 248 251 244 244 251
9 327 338 298 314 332 309 320 314 313 307 303 296 292 288 285 283 282 281 277 274 272 270 274 269 271 272 267 263 243 246 240 252 268 273 274 273 269 267 273 258 250 254 254
352 339 308 298 306 307 297 305 301 296 296 290 290 287 286 287 283 278 277 273 271 268 267 267 265 264 265 263 270 260 252 241 247 252 270 274 269 274 273 275 279 280 279 276
Height
1515 1516 1512 1501 1494 1494 1500 1507 1508 1498 1492 1501 1496 1493 1484 1480 1484 1490 1492 1496 1502 1509 1514 1520 1524 1528 1531 1536 1541 1545 1549 1552 1555 1555 1559 1562 1564 1567 1569 1571 1573 1574 1578 1581
1509 1511 1501 1496 1495 1501 1503 1505 1503 1493 1493 1496 1493 1488 1479 1475 1474 1480 1486 1488 1495 1502 1507 1515 1520 1523 1527 1531 1537 1541 1545 1548 1551 1554 1556 1559 1562 1565 1567 1569 1571 1573 1575 1578
1505 1493 1498 1498 1498 1505 1502 1502 1498 1500 1494 1492 1486 1485 1468 1465 1469 1474 1476 1482 1487 1494 1499 1510 1516 1519 1523 1527 1532 1536 1540 1543 1546 1550 1554 1556 1559 1562 1564 1566 1568 1571 1573 1575
1499 1494 1497 1501 1502 1499 1502 1488 1493 1500 1504 1506 1478 1504 1469 1461 1464 1466 1471 1474 1481 1487 1494 1502 1511 1515 1519 1523 1528 1532 1536 1539 1543 1545 1549 1551 1555 1558 1561 1563 1565 1568 1569 1572
1497 1495 1499 1501 1499 1493 1499 1490 1495 1496 1498 1494 1484 1484 1464 1458 1464 1464 1466 1468 1473 1480 1487 1495 1504 1510 1515 1520 1524 1528 1531 1535 1538 1540 1545 1547 1551 1555 1557 1560 1562 1564 1566 1568
1495 1491 1494 1493 1490 1491 1491 1495 1495 1490 1490 1503 1474 1476 1464 1457 1459 1461 1461 1465 1468 1474 1481 1490 1498 1506 1511 1516 1520 1524 1527 1529 1534 1537 1541 1543 1547 1551 1553 1556 1558 1560 1564 1565
1486 1487 1487 1493 1494 1490 1493 1496 1504 1502 1494 1489 1461 1479 1465 1450 1452 1456 1457 1459 1464 1469 1477 1486 1493 1500 1507 1511 1516 1520 1523 1525 1529 1534 1537 1540 1544 1546 1549 1551 1554 1557 1560 1562
1486 1487 1478 1481 1490 1488 1491 1489 1494 1507 1487 1474 1461 1480 1459 1447 1451 1453 1454 1455 1460 1466 1474 1482 1489 1496 1503 1508 1512 1516 1519 1521 1525 1529 1532 1536 1539 1544 1546 1547 1550 1553 1556 1559
1486 1484 1477 1482 1481 1485 1485 1489 1475 1483 1472 1479 1463 1453 1446 1444 1449 1450 1451 1454 1459 1464 1470 1478 1485 1492 1498 1503 1507 1511 1515 1518 1521 1525 1529 1532 1535 1538 1543 1544 1546 1550 1552 1553
1482 1496 1470 1474 1480 1480 1480 1470 1487 1480 1508 1508 1470 1466 1462 1454 1451 1453 1453 1454 1458 1463 1469 1475 1482 1488 1494 1499 1503 1508 1511 1514 1517 1522 1525 1528 1531 1533 1538 1541 1541 1545 1549 1552
1481 1483 1479 1476 1478 1473 1477 1482 1479 1472 1470 1484 1485 1473 1449 1454 1453 1455 1452 1455 1456 1462 1467 1473 1478 1484 1490 1495 1499 1503 1507 1510 1513 1517 1521 1524 1527 1530 1533 1537 1537 1540 1545 1548
1480 1479 1483 1473 1458 1460 1464 1466 1462 1479 1484 1469 1469 1463 1438 1449 1450 1453 1455 1458 1459 1461 1465 1470 1475 1480 1485 1490 1494 1497 1502 1505 1509 1513 1516 1519 1523 1526 1529 1532 1535 1535 1538 1543
1485 1486 1491 1479 1462 1456 1468 1466 1461 1459 1456 1469 1478 1465 1437 1445 1450 1451 1452 1460 1463 1463 1464 1468 1472 1476 1480 1484 1488 1492 1496 1500 1505 1509 1512 1516 1519 1522 1525 1526 1529 1532 1533 1536
1500 1489 1489 1491 1473 1471 1488 1474 1466 1466 1474 1468 1464 1456 1442 1441 1446 1448 1450 1457 1462 1465 1465 1466 1469 1474 1479 1482 1485 1488 1492 1496 1500 1504 1507 1510 1513 1516 1520 1523 1524 1526 1528 1531
1495 1495 1487 1480 1474 1469 1470 1474 1470 1472 1470 1477 1464 1458 1450 1452 1460 1457 1454 1458 1462 1465 1466 1469 1469 1470 1475 1478 1482 1486 1489 1492 1495 1498 1502 1505 1509 1512 1515 1519 1520 1522 1525 1527
1494 1498 1492 1491 1483 1477 1478 1473 1469 1467 1465 1466 1463 1460 1449 1450 1453 1459 1457 1463 1467 1471 1473 1473 1473 1473 1474 1475 1478 1481 1484 1488 1491 1494 1498 1501 1503 1507 1510 1513 1516 1518 1520 1522
1501 1498 1500 1497 1485 1480 1482 1469 1465 1461 1456 1457 1466 1456 1447 1452 1455 1463 1464 1469 1472 1474 1476 1476 1475 1474 1474 1475 1476 1478 1480 1484 1487 1489 1492 1496 1499 1502 1505 1508 1511 1513 1515 1517
1497 1498 1498 1499 1496 1505 1475 1466 1463 1464 1460 1463 1466 1467 1464 1478 1461 1468 1473 1476 1478 1478 1478 1478 1477 1475 1474 1473 1475 1478 1479 1481 1484 1487 1490 1492 1494 1496 1499 1501 1503 1507 1511 1513
1495 1497 1501 1503 1496 1482 1472 1477 1475 1473 1487 1477 1478 1474 1474 1464 1460 1475 1481 1481 1482 1481 1480 1479 1479 1477 1476 1474 1475 1477 1480 1480 1482 1485 1487 1489 1490 1491 1494 1497 1500 1504 1507 1511
1495 1498 1504 1498 1504 1502 1496 1491 1484 1480 1485 1493 1493 1492 1488 1483 1479 1488 1486 1486 1484 1483 1483 1481 1480 1479 1478 1478 1478 1478 1480 1481 1481 1482 1484 1485 1486 1487 1489 1493 1497 1501 1502 1503
1501 1500 1500 1493 1499 1491 1504 1498 1491 1495 1501 1497 1499 1499 1501 1499 1499 1495 1490 1489 1489 1487 1484 1482 1481 1481 1479 1479 1480 1480 1479 1480 1482 1481 1481 1481 1482 1485 1489 1492 1496 1497 1499 1500
1511 1509 1501 1494 1504 1530 1510 1501 1507 1502 1499 1499 1501 1502 1501 1500 1499 1497 1493 1490 1488 1488 1487 1483 1482 1482 1480 1479 1480 1479 1481 1481 1481 1481 1481 1480 1483 1485 1487 1487 1489 1490 1490 1495
1512 1511 1512 1514 1503 1501 1502 1501 1502 1502 1500 1499 1500 1500 1499 1497 1495 1493 1490 1490 1489 1485 1484 1483 1482 1483 1482 1480 1478 1480 1479 1481 1482 1482 1480 1481 1483 1486 1487 1485 1480 1472 1482 1490
1506 1510 1510 1510 1505 1505 1504 1503 1503 1502 1499 1500 1497 1497 1497 1495 1492 1489 1488 1486 1485 1483 1483 1481 1481 1479 1479 1480 1480 1478 1476 1478 1485 1483 1481 1481 1479 1482 1482 1480 1477 1475 1483 1487
1522 1518 1524 1517 1512 1512 1508 1509 1508 1505 1502 1499 1495 1493 1491 1488 1485 1484 1483 1483 1481 1479 1481 1479 1478 1475 1471 1477 1477 1473 1473 1474 1482 1482 1480 1478 1477 1479 1478 1477 1477 1477 1477 1478
1527 1529 1527 1523 1521 1520 1515 1511 1507 1502 1498 1496 1492 1488 1486 1481 1477 1476 1474 1474 1475 1475 1476 1474 1472 1471 1470 1474 1469 1466 1469 1473 1477 1476 1472 1473 1473 1475 1477 1475 1473 1473 1473 1472